Regional Weather Roundup
Issued by NWS

Home | Current Version | Previous Version | Text Only | Print | Product List | Glossary Off
Versions: 1 2 3 4 5 6 7 8 9 10 11 12 13 14 15 16 17 18 19 20 21 22 23 24 25 26 27 28 29 30 31 32 33 34 35 36 37 38 39 40 41 42 43 44 45 46 47 48 49 50

000
ASUS43 KMKX 191511
RWRWI

WISCONSIN REGIONAL WEATHER ROUNDUP
NATIONAL WEATHER SERVICE MILWAUKEE/SULLIVAN WI
1000 AM CDT THU OCT 19 2017

NOTE: "FAIR" INDICATES FEW OR NO CLOUDS BELOW 12,000 FEET WITH NO
SIGNIFICANT WEATHER AND/OR OBSTRUCTIONS TO VISIBILITY.

WIZ001-002-006>008-014>016-023>028-191600-
NORTHWEST WISCONSIN

CITY           SKY/WX    TMP DP  RH WIND       PRES   REMARKS
SUPERIOR ARPT  CLOUDY    49  32  51 SW7       30.02R
ASHLAND        CLOUDY    53  28  38 SW12      30.03R
HAYWARD        CLOUDY    50  30  46 SW6       30.06R
SIREN          NOT AVBL
CUMBERLAND     CLOUDY    46  34  61 CALM      30.07S
RICE LAKE      CLOUDY    48  35  59 CALM      30.09R
CHETEK         CLOUDY    48  37  66 E3        30.08S
LADYSMITH      CLOUDY    49  35  59 SW6       30.09S
EAU CLAIRE     CLOUDY    50  33  52 S3        30.09S
MENOMONIE      CLOUDY    50  38  65 CALM      30.09R
NEW RICHMOND   CLOUDY    50  35  57 S3        30.07S
OSCEOLA        NOT AVBL
$$

WIZ003>005-009-010-017-018-191600-
NORTH CENTRAL WISCONSIN

CITY           SKY/WX    TMP DP  RH WIND       PRES   REMARKS
MANITOWISH WTR PTSUNNY   49  27  42 SW8       30.04R
ARBOR VITAE    MOSUNNY   52  30  43 W6        30.05R
WOODRUFF       MOSUNNY   52  30  43 W6        30.05R
RHINELANDER    MOSUNNY   50  27  40 W13       30.07R
EAGLE RIVER    CLOUDY    50  22  33 W8G17     30.04R
LAND O LAKES   CLOUDY    51  22  31 W9        30.04R
PHILLIPS       CLOUDY    49  30  47 SW5       30.07R
TOMAHAWK       CLOUDY    52  27  37 W6        30.08R
MEDFORD        NOT AVBL
MERRILL        CLOUDY    51  30  44 W6        30.09R
$$

WIZ029-030-035-036-043>047-191600-
CENTRAL WISCONSIN

CITY           SKY/WX    TMP DP  RH WIND       PRES   REMARKS
WAUSAU         MOSUNNY   50  33  52 S6        30.09R
MOSINEE        MOSUNNY   52  30  43 W6        30.12R
MARSHFIELD     CLOUDY    53  32  44 SW5       30.11R
STEVENS POINT  NOT AVBL
WAUPACA        NOT AVBL
WAUTOMA        CLOUDY    51  34  52 VRB3      30.14R
WISC RAPIDS      N/A     52  33  48 SW3       30.14R
CAMP DOUGLAS   PTSUNNY   55  36  47 S3        30.14R
$$

WIZ011>013-019>022-031-037>040-048>050-191600-
NORTHEAST WISCONSIN

CITY           SKY/WX    TMP DP  RH WIND       PRES   REMARKS
ANTIGO         CLOUDY    49  31  51 W6        30.08R
SHAWANO        PTSUNNY   54  30  39 W6        30.10R
OCONTO         NOT AVBL
STURGEON BAY   SUNNY     55  32  41 W10       30.08R
GREEN BAY      CLOUDY    55  33  43 W12       30.11R
MANITOWOC      CLOUDY    56  31  38 W13       30.12R
APPLETON       MOSUNNY   52  27  37 W9        30.11R
CLINTONVILLE   MOSUNNY   54  28  37 W8        30.11R
OSHKOSH        MOSUNNY   55  33  43 W5        30.12R
$$

WIZ032>034-041-042-053>061-191600-
SOUTHWEST WISCONSIN

CITY           SKY/WX    TMP DP  RH WIND       PRES   REMARKS
LA CROSSE      CLOUDY    52  41  66 SE8       30.14R
SPARTA         MOSUNNY   48  37  64 CALM      30.15R
VIROQUA        CLOUDY    55  33  44 CALM      30.15R
BOSCOBEL       SUNNY     53  41  63 CALM      30.17R
PRAIRIE DU CHI NOT AVBL
PLATTEVILLE    NOT AVBL
$$

WIZ056-057-062-063-064-067-068-191600-
SOUTH CENTRAL WISCONSIN

CITY           SKY/WX    TMP DP  RH WIND       PRES   REMARKS
REEDSBURG      CLOUDY    53  38  56 CALM      30.15R
BARABOO/DELLS  CLOUDY    57  33  39 W3        30.15R
LONE ROCK      MOSUNNY   51  44  77 CALM      30.17R
MINERAL POINT  NOT AVBL
MADISON        PTSUNNY   58  36  43 CALM      30.16R
MIDDLETON      SUNNY     60  37  42 CALM      30.17R
WATERTOWN      NOT AVBL
MONROE         SUNNY     59  27  29 NE3       30.16R
JANESVILLE     SUNNY     57  43  58 CALM      30.16R
$$

WIZ051-052-058>065-066-070>072-191600-
SOUTHEAST WISCONSIN

CITY           SKY/WX    TMP DP  RH WIND       PRES   REMARKS
MILWAUKEE      PTSUNNY   60  28  29 NW7       30.16R
WAUKESHA       SUNNY     55  28  35 NW7       30.16R
MILWAUKEE/TIMM SUNNY     57  25  28 W6        30.15R
RACINE         MOSUNNY   60  29  30 NW6       30.17R
BURLINGTON     SUNNY     59  31  34 NW3       30.17R
KENOSHA        MOSUNNY   59  31  34 W3        30.17R
FOND DU LAC    MOSUNNY   56  31  38 W6        30.14R
SHEBOYGAN      PTSUNNY   56  31  38 W8        30.13R
WEST BEND      NOT AVBL
JUNEAU         MOSUNNY   56  32  41 SW6       30.16R
$$

LSZ147-162-191600-
LAKE SUPERIOR

STATION/POSITION TIME  TEMP    WIND        PRES    WAVE
                       AIR SEA DIR/SP/G            HT/PER
                 (UTC) (F)     (DEG/KT/KT) (MB)    (FT/S)
W MID LAKE BUOY  1350   52 52              1012.8R   7/ 6
DEVILS ISLAND    1500   53     250/ 19/ 22 1015.8R
SAXON HARBOR     1440   53     210/  6/ 11 1016.3R
$$

LMZ867-665-643>646-191600-
LAKE MICHIGAN

STATION/POSITION TIME  TEMP    WIND        PRES    WAVE
                       AIR SEA DIR/SP/G            HT/PER
                 (UTC) (F)     (DEG/KT/KT) (MB)    (FT/S)
S GREEN BAY BUOY 1500   53 58  250/ 16/ 19 1018.3
N MID LAKE BUOY  1450   56 58  250/ 21/ 23 1016.7R   4/ 4
NORTHPORT PIER   1440   56     260/  6/ 14 1016.9R
KEWAUNEE LAKESHO 1442   53     270/  7/ 10 1018.2R
SHEBOYGAN LAKESH 1500   56     290/ 10/ 13 1020.1R
PORT WASHINGTON  1440   59     290/  3/  6 1021.3R
ATWATER BUOY     1309   54 53  260/  6/  8 1020.3
MILWAUKEE LAKESH 1450   58     290/  5/  7   N/A
S MID LAKE BUOY  1450   58 60  320/ 10/ 12 1021.3R   3/ 4
KENOSHA   LAKESH 1500   59     310/  7/  9 1021.3
$$

TC  - TEMPERATURE IN CELSIUS
VSB - VISIBILITY IN STATUTE MILES
WCI - WIND CHILL INDEX
HX  - HEAT INDEX





USA.gov is the U.S. government's official web portal to all federal, state and local government web resources and services.